Location: Bamazo
(6.7448°N, 10.8189°W)
Time: 01:30:53
(UTC+00:00)

Cosmos 1066 Rocket - Pass Details

Date: 18 September 2020
Orbit: 798 x 895 km, 81.2° (Epoch: 21 October)

Event Time Altitude Azimuth Distance (km) Brightness Sun altitude
Rises 19:00:22 0° 357° (N) 3,302 7.4 -5.6°
Reaches altitude 10° 19:02:43 10° 359° (N) 2,381 6.6 -6.2°
Maximum altitude 19:08:06 79° 85° (E) 836 4.1 -7.5°
Drops below altitude 10° 19:13:36 10° 171° (S) 2,439 6.5 -8.9°
Sets 19:16:02 0° 172° (S) 3,389 7.2 -9.5°
